Location: St. Louis
(38.6270°N, 90.1994°W)
Time: 09:34:08
(UTC-06:00)

Vanguard 2 Rocket - Pass Details

Date: 01 December 2021
Orbit: 553 x 3325 km, 32.9° (Epoch: 23 January)

Event Time Altitude Azimuth Distance (km) Brightness Sun altitude
Rises 20:53:22 0° 265° (W) 4,105 10.9 -48.8°
Reaches altitude 10° 20:55:40 10° 262° (W) 3,407 10.3 -49.3°
Enters shadow 20:59:41 35° 251° (WSW) 2,431 9.1 -50.1°
Maximum altitude 21:04:40 66° 183° (S) 2,125 - -51.0°
Drops below altitude 10° 21:20:37 10° 106° (ESE) 5,736 - -54.0°
Sets 21:25:49 0° 104° (ESE) 7,028 - -55.0°
